一网星座-0163星 (ONEWEB-0163 )

导读 | 豆包AI

ONEWEB-0163是英国OneWeb星座组网的低轨宽带通信卫星,由OneWeb公司与空中客车防务与航天公司合作制造,于2021年3月25日发射入轨。单星重约147.5公斤,设计寿命5年,配备Ku/Ka波段天线,单星通信能力约7.5Gbps,可提供最高50Mbps下载速率。作为OneWeb全球卫星互联网星座的组成部分,它为全球范围提供广覆盖、低延迟的宽带接入服务,兼具商业与潜在应用价值。

Basic Information
目录编号:
48061
目录名称:
ONEWEB-0163
国际标识:
2021-025V
轨道中心:
EARTH
卫星名称:
一网星座-0163星
卫星全名:
一网星座-0163星 (ONEWEB-0163 )
卫星状态:
在轨 (已飞行1860 天)
发射日期:
2021-03-25 UTC
国别 :
英国 (GB)
星等 :
--
Orbit Information
数据来源 国际轨道数据 AOE轨道数据
星历时间 2026-04-28T15:16:26+0800
15小时前
查看轨道信息
2026-04-28T07:00:00+0800
23小时前
查看轨道信息
半长轴 7587.902km 7587.88km
偏心率 0.0001466 0.0001468
轨道倾角 87.896° 87.896°
近地点辐角 80.142° 86.789°
升交点赤经 330.158° 330.227°
平近点角 279.988° 84.158°
近地点 1208.652km 1208.629km
远地点 1210.878km 1210.857km
周期 109.633分钟 109.633分钟
每日圈数 13.134702 13.13476
Detailed Information
平衡模式:
三轴稳定
覆盖范围:
全球
运营商:
一网卫星公司
运营商所在国:
英国
制造商(研发单位):
一网卫星公司
制造商所在国:
英国
使用方式:
暂无
Satellite Introduction
OneWeb卫星网络由648颗重约125公斤的微型卫星组成,运行在1200公里的轨道上。 每颗卫星都能够提供至少每秒8千兆位的吞吐量,以使用其高吞吐量的Ku频段有效载荷为家庭和移动平台提供互联网接入。该卫星仍在工作。
2D Orbit Map
3D Orbit Map
Orbit Altitude Analysis Chart
Orbit Inclination Analysis Chart
Orbit Comprehensive Analysis Chart
View Comprehensive Chart